Zurück zum Katalog

BREEZE-M R/B

AktivHEO
NORAD 38099·ROCKET BODY·🇷🇺 Russia

Gestartet Mar 25, 2012 von Baikonur Cosmodrome

Loading…

Nächste Überflüge (nächste 24 Stunden)

TLE

AktuellSource: Space-Track

Epoche: Sep 14, 2026, 07:40 UTC

1 38099U 12011B   26257.31966925 -.00000374  00000-0  00000+0 0  9991
2 38099  25.2983 154.0610 7632203  27.1515 357.6150  1.11834225 58974

Verfolge BREEZE-M R/B in Echtzeit mit AllMySat

Download on the App Store